Kirksville, MO

5:55 AM CDT on April 20, 2018 (GMT -0500)
Kirksville Regional

Weather History for KIRK - January, 2012

Change the Weather History Date:

Wednesday, January 11, 2012

  Actual Average Record
Temperature  
Mean Temperature 39 °F 26 °F  
Max Temperature 57 °F 35 °F 62 °F (2004)
Min Temperature 20 °F 17 °F -17 °F (1918)
Degree Days  
Heating Degree Days 26 39  
Month to date heating degree days 327 429  
Since 1 July heating degree days 2359 2772  
Cooling Degree Days 0 0  
Month to date cooling degree days 0 0  
Year to date cooling degree days 0 0  
Moisture  
Dew Point 22 °F    
Average Humidity 56    
Maximum Humidity 84    
Minimum Humidity 27    
Precipitation  
Precipitation 0.03 in 0.03 in 1.42 in (2011)
Month to date precipitation 0.03 0.34  
Year to date precipitation 0.03 0.34  
Sea Level Pressure  
Sea Level Pressure 29.71 in    
Wind  
Wind Speed 8 mph (NW)    
Max Wind Speed 25 mph    
Max Gust Speed 36 mph    
Visibility 9 miles    
Events Snow    
T = Trace of Precipitation, MM = Missing Value Source: NWS Daily Summary

Daily Weather History Graph

Daily Weather History Graph

Search for Another Location

Airport or City:

Astronomy

Jan. 11, 2012 Rise Set
Actual Time 7:31 AM CST 5:04 PM CST
Civil Twilight 7:01 AM CST 5:34 PM CST
Nautical Twilight 6:28 AM CST 6:08 PM CST
Astronomical Twilight 5:55 AM CST 6:40 PM CST
Moon 8:03 PM CST (1/11) 8:44 AM CST (1/11)
Length of Visible Light 10h 32m
Length of Day
9h 32m
Waning Gibbous, 93% of the Moon is Illuminated
Jan 11
Waning Gibbous
Jan 16
Last Quarter
Jan 23
New
Jan 30
First Quarter
Feb 7
Full

Hourly Weather History & Observations

Time (CST) Temp. Windchill Dew Point Humidity Pressure Visibility Wind Dir Wind Speed Gust Speed Precip Events Conditions
12:55 AM 28.0 °F - 19.9 °F 72% 29.75 in 10.0 mi Calm Calm - N/A   Clear
1:55 AM 23.0 °F - 18.0 °F 81% 29.73 in 10.0 mi Calm Calm - N/A   Clear
2:55 AM 24.1 °F - 18.0 °F 77% 29.71 in 10.0 mi Calm Calm - N/A   Clear
3:55 AM 23.0 °F - 18.0 °F 81% 29.70 in 10.0 mi Calm Calm - N/A   Clear
4:55 AM 21.0 °F - 16.0 °F 81% 29.70 in 10.0 mi Calm Calm - N/A   Clear
5:55 AM 21.0 °F 16.2 °F 17.1 °F 85% 29.70 in 10.0 mi West 3.5 mph - N/A   Clear
6:55 AM 21.0 °F 16.2 °F 17.1 °F 85% 29.68 in 10.0 mi WNW 3.5 mph - N/A   Clear
7:55 AM 21.9 °F - 17.1 °F 82% 29.68 in 10.0 mi Calm Calm - N/A   Clear
8:55 AM 35.1 °F - 28.9 °F 78% 29.68 in 10.0 mi Calm Calm - N/A   Clear
9:55 AM 46.0 °F - 28.0 °F 50% 29.68 in 10.0 mi Calm Calm - N/A   Clear
10:55 AM 51.8 °F - 24.8 °F 35% 29.64 in 10.0 mi South 3.5 mph - N/A   Clear
11:55 AM 54.0 °F - 23.0 °F 30% 29.64 in 10.0 mi WNW 5.8 mph - N/A   Clear
12:55 PM 55.0 °F - 23.0 °F 29% 29.61 in 10.0 mi Variable 6.9 mph - N/A   Clear
1:55 PM 55.9 °F - 23.0 °F 28% 29.60 in 10.0 mi West 6.9 mph - N/A   Clear
2:55 PM 55.0 °F - 25.0 °F 31% 29.61 in 10.0 mi West 9.2 mph - N/A   Clear
3:55 PM 48.9 °F - 30.0 °F 48% 29.64 in 10.0 mi NW 12.7 mph 23.0 mph N/A   Clear
4:55 PM 39.9 °F 31.4 °F 32.0 °F 73% 29.68 in 10.0 mi NW 16.1 mph 32.2 mph N/A   Clear
5:12 PM 39.2 °F 30.5 °F 32.0 °F 75% 29.64 in 10.0 mi NNW 16.1 mph 27.6 mph N/A   Mostly Cloudy
5:55 PM 37.0 °F 26.7 °F 30.9 °F 79% 29.71 in 10.0 mi NNW 19.6 mph 31.1 mph N/A   Overcast
6:08 PM 35.6 °F 23.7 °F 30.2 °F 81% 29.68 in 10.0 mi NW 24.2 mph 33.4 mph N/A   Overcast
6:55 PM 33.1 °F 21.2 °F 27.0 °F 78% 29.76 in 10.0 mi NNW 20.7 mph 31.1 mph N/A   Overcast
7:42 PM 28.4 °F 14.7 °F 21.2 °F 74% 29.74 in 10.0 mi NW 21.9 mph 31.1 mph N/A   Overcast
7:55 PM 28.4 °F 15.8 °F 21.2 °F 74% 29.74 in 10.0 mi NNW 18.4 mph 32.2 mph N/A   Overcast
8:55 PM 27.0 °F 12.2 °F 19.9 °F 75% 29.80 in 10.0 mi NNW 24.2 mph 29.9 mph N/A   Overcast
9:55 PM 24.1 °F 9.8 °F 17.1 °F 75% 29.81 in 10.0 mi NNW 19.6 mph 32.2 mph N/A   Overcast
10:48 PM 21.2 °F 10.1 °F 17.6 °F 86% 29.79 in 8.0 mi NW 10.4 mph 20.7 mph N/A   Overcast
10:55 PM 21.9 °F 10.4 °F 18.0 °F 85% 29.82 in 9.0 mi NNW 11.5 mph 20.7 mph N/A   Overcast
11:30 PM 21.2 °F 9.5 °F 15.8 °F 80% 29.79 in 1.8 mi NW 11.5 mph 21.9 mph 0.01 in Snow Light Snow
11:36 PM 21.2 °F 8.3 °F 17.6 °F 86% 29.79 in 0.8 mi NW 13.8 mph 21.9 mph 0.01 in Snow Light Snow
11:55 PM 19.9 °F 6.2 °F 16.0 °F 85% 29.82 in 0.8 mi NW 15.0 mph 21.9 mph 0.02 in Snow Light Snow